Date String (YYYY-MM-DD hh:mm:ss) UTC,Instrument flags,Ambient pressure (hPa),Sample flow (lpm),Bypass flow (lpm),Sample temperature (°C),Ambient temperature (°C),ASC tube jacket temperature (°C),LED temperature (°C),Box temperature (°C),Sample RH (%),Span deviation,Mass concentration (μg/m³),Mass concentration (μg/m³),Mass concentration (μg/m³)
DateTimeUTC,F1_M11,P_M11,Q1_M11,Q2_M11,T1_M11,T2_M11,T3_M11,T4_M11,T5_M11,U1_M11,ZSPAN_M11,X2_M11,X0_M11,X1_M11
2023-04-25 22:00:00,,0825.6,5.00,0.00,26.0,24.4,00.0,34.4,27.6,20.1,0000.0,0002.33,0003.98,0001.62
2023-04-25 22:01:00,,0825.6,5.00,0.00,26.0,24.5,00.0,34.4,27.6,20.3,0000.0,0002.47,0004.69,0001.70
2023-04-25 22:02:00,,0825.6,5.00,0.00,26.0,24.5,00.0,34.4,27.6,20.4,0000.0,0002.62,0004.98,0001.79
2023-04-25 22:03:00,,0825.6,5.01,0.00,26.0,24.5,00.0,34.4,27.6,20.3,0000.0,0002.72,0005.14,0001.87
2023-04-25 22:04:00,,0825.6,5.00,0.00,26.0,24.5,00.0,34.4,27.6,20.1,0000.0,0002.70,0005.09,0001.90
2023-04-25 22:05:00,,0825.7,5.00,0.00,26.0,24.5,00.0,34.4,27.6,20.2,0000.0,0002.76,0005.24,0001.93
2023-04-25 22:06:00,,0825.7,4.99,0.00,26.0,24.5,00.0,34.4,27.5,20.5,0000.0,0002.83,0005.33,0001.98
2023-04-25 22:07:00,,0825.7,5.01,0.00,26.0,24.4,00.0,34.4,27.5,20.6,0000.0,0002.90,0005.38,0002.07
2023-04-25 22:08:00,,0825.7,5.00,0.00,26.0,24.4,00.0,34.4,27.5,20.6,0000.0,0002.99,0005.46,0002.17
2023-04-25 22:09:00,,0825.8,5.01,0.00,26.0,24.4,00.0,34.4,27.5,20.7,0000.0,0003.06,0005.57,0002.26
2023-04-25 22:10:00,,0825.8,5.00,0.00,26.0,24.4,00.0,34.4,27.5,20.8,0000.0,0003.12,0005.59,0002.37
2023-04-25 22:11:00,,0825.8,4.98,0.00,25.9,24.4,00.0,34.4,27.5,20.8,0000.0,0003.16,0005.60,0002.47
2023-04-25 22:12:00,,0825.8,5.00,0.00,25.9,24.4,00.0,34.4,27.5,21.1,0000.0,0003.19,0005.09,0002.55
2023-04-25 22:13:00,,0825.8,5.01,0.00,25.9,24.4,00.0,34.4,27.5,21.3,0000.0,0003.25,0005.17,0002.68
2023-04-25 22:14:00,,0826.0,5.01,0.00,25.9,24.4,00.0,34.4,27.5,21.5,0000.0,0003.34,0005.33,0002.86
2023-04-25 22:15:00,,0825.9,5.00,0.00,25.9,24.4,00.0,34.4,27.5,21.7,0000.0,0003.51,0005.69,0003.10
2023-04-25 22:16:00,,0825.9,4.98,0.00,25.9,24.3,00.0,34.4,27.5,21.9,0000.0,0003.63,0005.84,0003.25
2023-04-25 22:17:00,,0825.9,5.01,0.00,25.9,24.3,00.0,34.4,27.5,22.5,0000.0,0003.86,0006.35,0003.45
2023-04-25 22:18:00,,0825.9,5.01,0.00,25.9,24.3,00.0,34.4,27.5,22.9,0001.0,0004.15,0007.06,0003.70
2023-04-25 22:19:00,,0825.9,5.01,0.00,25.9,24.3,00.0,34.4,27.5,23.1,0001.6,0004.46,0007.61,0003.93
2023-04-25 22:20:00,,0825.9,5.00,0.00,25.9,24.2,00.0,34.3,27.5,23.1,0001.6,0004.75,0008.08,0004.18
2023-04-25 22:21:00,,0825.9,5.00,0.00,25.9,24.2,00.0,34.3,27.5,23.2,0001.7,0005.02,0009.12,0004.42
2023-04-25 22:22:00,,0825.9,5.00,0.00,25.8,24.1,00.0,34.3,27.5,23.2,0001.4,0005.25,0009.91,0004.64
2023-04-25 22:23:00,,0826.0,4.99,0.00,25.8,24.1,00.0,34.3,27.4,23.3,0001.3,0005.50,0010.29,0004.86
2023-04-25 22:24:00,,0826.0,5.00,0.00,25.8,24.1,00.0,34.3,27.4,23.4,0001.6,0005.73,0010.56,0005.05
2023-04-25 22:25:00,,0826.0,5.01,0.00,25.8,24.1,00.0,34.3,27.4,23.4,0001.4,0005.87,0010.95,0005.19
2023-04-25 22:26:00,,0826.0,5.01,0.00,25.8,24.1,00.0,34.3,27.4,23.4,0001.2,0005.99,0011.71,0005.29
2023-04-25 22:27:00,,0826.0,5.00,0.00,25.8,24.2,00.0,34.3,27.4,23.4,0001.5,0006.12,0011.86,0005.40
2023-04-25 22:28:00,,0826.0,5.00,0.00,25.8,24.2,00.0,34.3,27.4,23.2,0001.4,0006.12,0011.80,0005.42
2023-04-25 22:29:00,,0826.1,4.99,0.00,25.8,24.1,00.0,34.3,27.4,23.1,0001.3,0006.05,0011.75,0005.35
2023-04-25 22:30:00,,0826.1,5.00,0.00,25.8,24.1,00.0,34.3,27.4,23.0,0001.3,0005.92,0011.59,0005.28
2023-04-25 22:31:00,,0826.1,5.00,0.00,25.7,24.1,00.0,34.2,27.4,23.1,0001.7,0005.82,0011.44,0005.19
2023-04-25 22:32:00,,0826.1,5.00,0.00,25.7,24.1,00.0,34.2,27.3,23.1,0001.6,0005.74,0010.86,0005.11
2023-04-25 22:33:00,,0826.1,5.00,0.00,25.7,24.1,00.0,34.2,27.3,23.2,0002.0,0005.69,0010.42,0005.04
2023-04-25 22:34:00,,0826.1,4.99,0.00,25.7,24.1,00.0,34.2,27.3,23.2,0002.1,0005.59,0010.42,0004.96
2023-04-25 22:35:00,,0826.1,5.00,0.00,25.7,24.1,00.0,34.2,27.3,23.2,0001.6,0005.47,0011.13,0004.87
2023-04-25 22:36:00,,0826.1,5.01,0.00,25.7,24.1,00.0,34.2,27.3,23.3,0001.5,0005.40,0010.98,0004.80
2023-04-25 22:37:00,,0826.1,5.01,0.00,25.7,24.1,00.0,34.2,27.3,23.2,0001.2,0005.34,0010.28,0004.74
2023-04-25 22:38:00,,0826.1,5.00,0.00,25.7,24.1,00.0,34.2,27.3,23.1,0001.1,0005.30,0010.25,0004.66
2023-04-25 22:39:00,,0826.1,5.00,0.00,25.7,24.1,00.0,34.2,27.3,23.1,0001.0,0005.24,0010.24,0004.61
2023-04-25 22:40:00,,0826.2,4.99,0.00,25.7,24.0,00.0,34.2,27.3,23.0,0001.1,0005.17,0010.13,0004.55
2023-04-25 22:41:00,,0826.2,4.99,0.00,25.7,24.0,00.0,34.2,27.3,23.0,0001.7,0005.12,0010.10,0004.49
2023-04-25 22:42:00,,0826.2,5.01,0.00,25.6,24.0,00.0,34.2,27.3,23.1,0001.7,0005.04,0009.91,0004.43
2023-04-25 22:43:00,,0826.2,5.00,0.00,25.6,24.1,00.0,34.2,27.3,23.1,0001.8,0004.94,0009.64,0004.34
2023-04-25 22:44:00,,0826.2,5.01,0.00,25.6,24.1,00.0,34.1,27.2,23.0,0001.5,0004.82,0009.33,0004.24
2023-04-25 22:45:00,,0826.2,4.99,0.00,25.6,24.0,00.0,34.1,27.2,22.9,0001.6,0004.71,0009.09,0004.14
2023-04-25 22:46:00,,0826.2,5.00,0.00,25.6,24.0,00.0,34.1,27.2,22.8,0001.6,0004.59,0008.35,0004.03
2023-04-25 22:47:00,,0826.2,4.99,0.00,25.6,24.0,00.0,34.1,27.2,22.8,0002.0,0004.44,0008.21,0003.91
2023-04-25 22:48:00,,0826.2,4.99,0.00,25.6,24.0,00.0,34.1,27.2,22.8,0002.0,0004.28,0008.14,0003.79
2023-04-25 22:49:00,,0826.3,5.01,0.00,25.6,24.0,00.0,34.1,27.2,22.8,0000.0,0004.10,0008.03,0003.67
2023-04-25 22:50:00,,0826.3,5.01,0.00,25.6,23.9,00.0,34.1,27.2,22.8,0000.0,0004.00,0007.97,0003.56
2023-04-25 22:51:00,,0826.4,5.00,0.00,25.6,23.9,00.0,34.1,27.2,22.8,0000.0,0003.90,0007.89,0003.47
2023-04-25 22:52:00,,0826.4,5.00,0.00,25.6,23.9,00.0,34.1,27.2,22.9,0000.0,0003.78,0007.67,0003.39
2023-04-25 22:53:00,,0826.4,4.98,0.00,25.5,23.9,00.0,34.1,27.1,23.0,0000.0,0003.70,0007.56,0003.31
2023-04-25 22:54:00,,0826.4,5.00,0.00,25.5,23.9,00.0,34.1,27.1,22.8,0000.0,0003.63,0007.60,0003.25
2023-04-25 22:55:00,,0826.4,5.01,0.00,25.5,23.9,00.0,34.0,27.1,22.5,0000.0,0003.56,0007.44,0003.20
2023-04-25 22:56:00,,0826.4,5.00,0.00,25.5,23.9,00.0,34.0,27.1,22.4,-000.3,0003.53,0007.41,0003.17
2023-04-25 22:57:00,,0826.4,5.00,0.00,25.5,23.9,00.0,34.0,27.1,22.4,0000.0,0003.49,0006.82,0003.15
2023-04-25 22:58:00,,0826.4,4.99,0.00,25.5,23.9,00.0,34.0,27.1,22.4,0000.0,0003.50,0006.72,0003.13
2023-04-25 22:59:00,,0826.4,5.00,0.00,25.5,23.9,00.0,34.0,27.1,22.5,0000.0,0003.49,0006.77,0003.12
